Probability
0 0 0 0 0 0 0 0 0 0 0 0 0 0 0 0 0 0 0 0 0 0 0 0 0 0 0 0 0 0 0 0 0 0 0 0 0 0
0 0 0 0 0 0 0 0 0 0 0 0 0 0 0 0 0 0 0 0 0 0 0 0 0 0 0 0 0 0 0 0 0 0 0 0 0 0
0 0 0 0 0 0 0 0 0 0 0 0 0 0 0 0 0 0 0 0 0 0 0 0 0 0 0 0 0 0 0 0 0 0 0 0 0 0
0 0 0 0 0 0 0 0 0 0 0 0 0 0 0 0 0 0 0 0 0 0 0 0 0 0 0 0 0 0 0 0 0 0 0 0 0 0
0 0 0 0 0 0 0 0 0 0 0 0 0 0 0 0 0 0 0 0 0 0 0 0 0 0 0 0 0 0 0 0 0 0 0 0 0 0
0 0 0 0 0 0 0 0 0 0 0 0 0 0 0 0 0 0 0 0 0 0 0 0 0 0 0 0 0 0 0 0 0 0 0 0 0 0
0 0 0 0 0 0 0 0 0 0 0 0 0 0 0 0 0 0 0 0 0 0 0 0 0 0 0 0 0 0 0 0 0 0 0 0 0 0
0 0 0 0 0 0 0 0 0 0 0 0 0 0 0 0 0 0 0 0 0 0 0 0 0 0 0 0 0 0 0 0 0 0 0 0 0 0
0 0 0 0 0 0 0 0 0 0 0 0 0 0 0 0 0 0 0 0 0 0 0 0 0 0 0 0 0 0 0 0 0 0 0 0 0 0
0 0 0 0 0 0 0 0 0 0 0 0 0 0 0 0 0 0 0 0 0 0 0 0 0 0 0 0 0 0 0 0 0 0 0 0 0 0
0 0 0 0 0 0 0 0 0 0 0 0 0 0 0 0 0 0 0 0 0 0 0 0 0 0 0 0 0 0 0 0 0 0 0 0 0 0
0 0 0 0 0 0 0 0 0 0 0 0 0 0 0 0 0 0 0 0 0 0 0 0 0 0 0 0 0 0 0 0 0 0 0 0 0 0
0 0 0 0 0 0 0 0 0 0 0 0 0 0 0 0 0 0 0 0 0 0 0 0 0 0 0 0 0 0 0 0 0 0 0 0 0 0
0 0 0 0 0 0 0 0 0 0 0 0 0 0 0 0 0 0 0 0 0 0 0 0 0 0 0 0 0 0 0 0 0 0 0 0 0 0
0 0 0 0 0 0 0 0 0 0 0 0 0 0 0 0 0 0 0 0 0 0 0 0 0 0 0 0 0 0 0 0 0 0 0 0 0 0
0 0 0 0 0 0 0 0 0 0 0 0 0 0 0 0 0 0 0 0 0 0 0 0 0 0 0 0 0 0 0 0 0 0 0 0 0 0
0 0 0 0 0 0 0 0 0 0 0 0 0 0 0 0 0 0 0 0 0 0 0 0 0 0 0 0 0 0 0 0 0 0 0 0 0 0
0 0 0 0 0 0 0 0 0 0 0 0 0 0 0 0 0 0 0 0 0 0 0 0 0 0 0 0 0 0 0 0 0 0 0 0 0 0
0 0 0 0 0 0 0 0 0 0 0 0 0 0 0 0 0 0 0 0 0 0 0 0 0 0 0 0 0 0 0 0 0 0 0 0 0 0
0 0 0 0 0 0 0 0 0 0 0 0 0 0 0 0 0 0 0 0 0 0 0 0 0 0 0 0 0 0 0 0 0 0 0 0 0 0
0 0 0 0 0 0 0 0 0 0 0 0 0 0 0 0 0 0 0 0 0 0 0 0 0 0 0 0 0 0 0 0 0 0 0 0 0 0
0 0 0 0 0 0 0 0 0 0 0 0 0 0 0 0 0 0 0 0 0 0 0 0 0 0 0 0 0 0 0 0 0 0 0 0 0 0
0 0 0 0 0 0 0 0 0 0 0 0 0 0 0 0 0 0 0 0 0 0 0 0 0 0 0 0 0 0 0 0 0 0 0 0 0 0
Wind_Speed
7 8 8 7 7 7 7 7 11 17 15 8 5 5 6 6 10 9 8 17 24 24 24 25 26 27 28 28 29 30 30 30 30 30 30 31 31 31
6 8 8 7 6 6 7 7 8 12 18 9 6 6 7 9 16 12 9 22 24 25 26 25 26 27 27 28 28 29 29 30 30 31 31 32 31 31
8 8 9 8 7 6 6 7 8 8 16 14 6 6 8 9 10 9 9 10 10 24 27 27 27 27 27 27 28 28 29 29 30 30 31 32 32 32
8 8 9 9 9 8 7 8 8 8 12 19 11 6 8 8 9 10 10 10 8 20 27 28 28 27 27 27 27 27 27 28 28 29 30 31 31 31
9 9 10 10 12 10 10 10 9 10 9 13 15 8 6 7 8 10 11 9 11 15 22 25 26 27 27 27 26 26 26 26 27 27 27 28 29 29
10 11 11 12 13 13 12 12 11 11 10 12 14 11 8 7 7 8 10 7 9 10 15 18 21 25 25 25 25 25 24 25 26 27 27 26 25 26
10 11 12 17 22 19 15 11 10 11 11 12 13 12 10 7 8 7 10 8 8 8 8 9 9 8 10 17 21 22 23 24 25 26 26 26 25 25
10 10 12 16 20 25 27 26 21 14 11 11 12 13 12 10 8 8 10 11 10 5 7 9 7 8 7 7 16 22 23 23 23 24 24 25 25 25
10 10 12 13 19 12 18 25 23 26 25 16 14 14 14 11 10 12 11 12 12 5 5 9 6 8 6 9 19 21 21 21 21 22 22 22 23 24
11 12 13 12 13 16 13 12 13 14 17 14 12 13 13 12 12 13 13 13 11 8 7 10 7 7 8 6 16 20 20 20 20 20 20 20 20 20
11 12 14 12 20 27 18 14 14 12 17 24 25 23 25 26 20 11 9 10 10 7 6 7 6 6 6 6 10 19 20 20 19 19 19 19 18 17
9 10 18 20 25 27 17 13 15 13 12 13 16 18 16 17 22 13 8 9 9 7 5 6 5 4 4 5 5 6 8 15 18 18 18 18 17 9
10 9 9 23 27 28 25 15 18 19 12 11 10 10 9 8 8 8 7 8 9 7 3 4 4 5 5 3 3 4 5 5 5 8 13 16 17 12
11 9 12 25 28 29 22 21 27 23 8 7 8 8 7 7 6 6 7 7 7 8 6 5 5 5 5 4 3 3 3 4 4 4 4 9 12 15
12 21 26 29 27 19 21 25 20 9 7 8 8 8 6 6 5 4 5 6 6 7 7 8 7 5 5 5 3 3 3 3 4 4 4 4 4 4
13 18 25 25 20 19 17 13 7 7 8 8 8 6 5 4 5 4 4 4 5 5 6 7 8 8 7 6 4 4 4 3 3 4 4 3 3 4
16 11 9 8 8 7 7 6 6 6 7 6 6 6 5 5 5 4 4 4 5 5 4 4 5 6 6 5 5 5 4 4 4 4 4 4 4 4
19 10 9 8 8 7 7 7 6 6 6 6 6 6 6 6 5 4 4 4 5 5 4 3 4 4 3 5 9 7 6 5 4 4 4 5 6 5
12 8 9 8 8 7 7 7 7 7 6 6 6 6 6 5 4 4 4 4 5 5 4 4 4 5 6 6 5 10 7 5 5 5 5 6 6 5
7 9 9 8 8 8 7 7 7 7 6 6 6 5 5 5 5 4 4 5 5 5 4 4 5 6 7 6 4 4 11 7 6 6 6 5 5 8
9 8 8 8 8 8 8 7 7 7 7 6 5 6 5 5 5 5 4 8 7 5 5 5 6 8 4 3 4 4 5 11 11 6 5 5 5 5
9 9 8 8 8 8 8 7 7 7 7 6 6 5 5 5 5 6 5 5 5 5 6 4 3 3 4 6 7 6 5 5 10 16 15 12 6 7
9 9 8 8 8 7 7 7 8 7 6 6 5 5 4 5 5 5 5 5 5 5 5 4 4 4 5 6 7 6 8 7 5 6 8 15 20 20
Wind_Direction
256 256 256 255 251 251 251 250 269 284 281 263 256 261 274 279 281 277 265 268 272 270 269 269 270 270 270 268 266 265 264 264 263 262 259 255 250 244
261 263 263 263 259 254 253 255 252 267 280 273 250 250 263 274 280 281 274 278 276 275 274 273 272 270 270 269 267 264 262 261 260 259 258 255 252 248
282 280 276 275 272 268 265 263 261 261 275 281 262 255 255 262 273 272 272 269 270 274 275 275 273 272 270 269 267 265 262 260 258 256 256 255 253 250
288 290 290 293 287 283 278 273 271 266 272 283 283 267 258 260 264 266 273 271 264 271 273 273 273 272 270 269 267 265 263 261 258 256 254 253 253 251
281 283 285 287 285 282 278 276 274 275 273 279 284 278 268 265 269 270 269 270 269 272 273 273 272 272 271 270 268 266 264 261 258 257 256 254 254 252
271 272 274 274 275 275 274 271 270 270 268 271 278 279 273 261 261 268 271 261 265 268 270 270 270 271 270 270 269 268 265 263 259 256 254 253 253 253
270 269 271 277 278 280 279 272 265 265 267 268 272 276 274 267 264 263 269 270 262 256 261 262 265 262 264 268 269 271 268 264 261 258 253 251 250 249
280 278 279 284 284 285 286 287 284 279 278 274 277 276 277 272 267 264 268 273 274 235 246 258 251 253 249 243 258 263 265 265 263 259 256 252 250 247
283 284 286 284 290 282 283 285 285 283 281 277 276 275 277 274 270 270 266 266 269 255 254 265 253 256 250 253 259 260 261 262 264 263 259 254 251 248
280 280 281 280 279 283 276 271 267 268 270 271 263 264 266 265 258 262 267 268 265 254 241 262 255 251 250 244 254 256 259 260 261 261 260 257 253 249
281 281 285 284 287 292 290 282 279 274 276 274 270 269 268 270 267 262 256 262 268 259 223 242 250 249 244 241 247 252 254 256 257 258 257 255 253 250
283 279 286 289 292 294 290 284 283 282 275 274 273 274 274 273 275 267 258 263 268 266 222 222 236 227 249 239 230 237 248 253 255 256 255 252 248 243
291 290 284 293 295 295 294 287 284 287 279 275 274 268 261 254 252 247 237 244 257 258 230 220 229 214 225 246 235 221 218 226 242 255 258 254 248 236
295 291 288 295 296 297 297 291 293 296 289 283 279 275 268 259 249 241 236 235 240 251 248 238 241 222 220 223 231 225 214 213 214 224 227 249 250 243
291 295 298 300 301 299 294 295 297 293 285 283 280 275 267 262 255 245 237 239 243 244 245 240 241 235 226 228 217 204 208 218 210 212 215 218 219 224
293 292 296 296 295 292 293 294 285 275 282 280 279 277 273 267 260 250 248 241 251 255 235 231 233 235 237 232 224 218 200 207 205 203 204 211 209 204
300 295 290 290 286 284 284 283 281 282 284 277 279 280 276 268 260 246 242 241 247 256 247 224 223 228 234 231 233 226 217 218 211 199 198 217 221 211
307 298 296 294 293 294 294 293 289 285 282 280 278 274 273 270 263 249 241 243 248 249 240 222 211 219 228 239 229 233 223 221 215 203 199 214 229 220
304 294 292 291 290 290 289 288 288 287 284 280 277 274 271 267 262 256 248 247 246 244 237 218 207 212 227 240 242 218 218 221 213 212 212 215 226 223
288 289 290 289 289 288 287 285 286 287 284 279 275 272 268 266 262 256 249 248 249 244 239 223 212 211 222 229 231 228 215 214 216 223 223 222 231 236
293 290 289 288 288 286 285 284 282 282 280 277 273 271 266 261 261 257 253 259 257 245 241 236 231 227 220 210 238 241 231 225 224 221 213 217 228 229
291 290 290 288 289 287 285 282 281 279 278 272 269 265 262 261 259 256 253 255 252 244 245 245 230 216 209 226 241 247 248 240 240 243 240 228 216 218
292 291 289 288 287 286 283 280 279 279 276 273 269 262 260 261 259 255 252 250 250 247 244 243 232 222 226 229 238 244 246 245 239 239 245 246 245 247